Regional Weather Roundup
Issued by NWS State College, PA

Home | Current Version | Previous Version | Text Only | Print | Product List | Glossary Off
Versions: 1 2 3 4 5 6 7 8 9 10 11 12 13 14 15 16 17 18 19 20 21 22 23 24 25 26 27 28 29 30 31 32 33 34 35 36 37 38 39 40 41 42 43 44 45 46 47 48 49 50

000
ASUS41 KCTP 200803
RWRCTP

REGIONAL WEATHER ROUNDUP
NATIONAL WEATHER SERVICE STATE COLLEGE PA
400 AM EDT WED AUG 20 2014

Note: "fair" indicates few or no clouds below 12,000 feet with no
significant weather and/or obstructions to visibility.

* = STATION THAT DOES NOT REPORT PRECIPITATION /E.G. RAIN...SNOW...ETC/
    THUNDER OR FOG.

PAZ002>004-007>009-013>016-020>023-029>032-200900-
WESTERN PENNSYLVANIA

CITY           SKY/WX    TMP DP  RH WIND       PRES   REMARKS
ERIE           CLOUDY    68  61  78 S13       29.83S
MEADVILLE      LGT RAIN  64  61  90 CALM      29.88F
FRANKLIN*      CLOUDY    63  59  88 SE7       29.89F
NEW CASTLE     NOT AVBL
BEAVER COUNTY  NOT AVBL
BUTLER*        CLOUDY    64  61  88 SE5       29.92R
PITTSBURGH INT RAIN      66  65  96 SE13      29.89F
PITTSBURGH     HVY RAIN  66  62  87 NW5       29.92R FOG
INDIANA*       CLOUDY    66  63  88 N6        29.97F
LATROBE        MOCLDY    66  66 100 NE6       29.94S THUNDER
WASHINGTON CO* CLOUDY    64  63  94 E5        29.93S
$$

PAZ004>006-010>012-017>019-024>028-033>037-041-042-045-046-049>053-200900-
CENTRAL PENNSYLVANIA

CITY           SKY/WX    TMP DP  RH WIND       PRES   REMARKS
BRADFORD       MOCLDY    63  62  97 CALM      29.94F FOG
DUBOIS         MOCLDY    65  62  90 NW7       29.94S
CLEARFIELD     FOG       61  61 100 N6        29.94R VSB 1/4
JOHNSTOWN      FOG       65  63  93 W8        29.96R VSB 1/4
ALTOONA        PTCLDY    68  67  96 S7        29.93F
STATE COLLEGE  MOCLDY    64  63  99 CALM      29.93S FOG
WILLIAMSPORT   MOCLDY    65  61  87 CALM      29.91S
SELINSGROVE    FOG       65  64  97 CALM      29.92S VSB 1/4
FT INDIANTOWN  CLEAR     64  64 100 NE2       29.94S FOG
CAPITAL CITY   MOCLDY    70  65  84 S5        29.92S
HARRISBURG     MOCLDY    70  65  84 SE3       29.91F
YORK           CLEAR     68  62  81 CALM      29.93S
$$

PAZ038>040-043-044-047-048-054-055-060>062-067>071-200900-
EASTERN PENNSYLVANIA

CITY           SKY/WX    TMP DP  RH WIND       PRES   REMARKS
SCRANTON       CLEAR     65  61  87 CALM      29.94S
MOUNT POCONO   MOCLDY    62  60  93 S3        29.99S
ALLENTOWN      CLOUDY    69  63  81 NE3       29.95R
QUAKERTOWN*    PTSUNNY   68  64  88 CALM      29.96S
READING        PTCLDY    70  62  76 SE3       29.93S
LANCASTER      MOCLDY    67  61  81 E5        29.94S
COATESVILLE    PTSUNNY   66  66 100 CALM      29.96S
POTTSTOWN      CLOUDY    69  64  84 CALM      29.96S
BLUE BELL      CLOUDY    70  64  83 CALM      29.94R
DOYLESTOWN     CLOUDY    66  63  90 CALM      29.94S
WILLOW GROVE   NOT AVBL
NORTH PHILA    CLOUDY    72  63  73 CALM      29.96R
PHILADELPHIA   CLOUDY    73  64  73 CALM      29.95R
$$



USA.gov is the U.S. government's official web portal to all federal, state and local government web resources and services.